Location: Aressy
(43.2833°N, 0.3167°W)
Time: 20:19:08
(UTC+00:00)

Cosmos 1346 Rocket - Visible Passes

Search period start: 14 May 2021 00:00
Search period end: 24 May 2021 00:00
Orbit: 527 x 550 km, 81.2° (Epoch: 14 May)

Date Brightness Start Highest point End Pass type
(mag) Time Alt. Az. Time Alt. Az. Time Alt. Az.
14 May 5.2 02:43:40 10° SE 02:46:29 19° E 02:49:19 10° NE visible
15 May 5.1 02:35:46 10° SE 02:38:37 20° E 02:41:29 10° NE visible
16 May 5.1 02:27:53 10° SE 02:30:46 20° E 02:33:39 10° NE visible
17 May 5.0 02:19:59 10° SE 02:22:54 20° E 02:25:49 10° NE visible
17 May 3.9 03:55:40 10° SW 03:59:03 28° WNW 04:02:29 10° NNW visible
18 May 5.0 02:12:22 11° SE 02:15:02 21° E 02:17:59 10° NE visible
18 May 3.9 03:47:52 10° SW 03:51:13 27° WNW 03:54:37 10° NNW visible
19 May 4.9 02:04:51 13° SE 02:07:10 21° E 02:10:10 10° NE visible
19 May 3.9 03:40:21 12° SW 03:43:21 27° WNW 03:46:45 10° NNW visible
20 May 4.9 01:57:19 15° SE 01:59:19 21° E 02:02:20 10° NE visible
20 May 4.0 03:32:49 14° SW 03:35:30 27° WNW 03:38:53 10° NNW visible
21 May 4.8 01:49:45 17° SE 01:51:27 22° E 01:54:30 10° NE visible
21 May 4.0 03:25:15 15° WSW 03:27:39 26° WNW 03:31:02 10° NNW visible
22 May 4.7 01:42:10 18° ESE 01:43:36 22° E 01:46:40 10° NE visible
22 May 4.0 03:17:40 17° WSW 03:19:48 26° WNW 03:23:09 10° NNW visible
23 May 4.6 01:34:34 20° ESE 01:35:44 22° E 01:38:51 10° NE visible
23 May 4.1 03:10:03 18° WSW 03:11:57 26° WNW 03:15:17 10° NNW visible
